owner,sensor,date,latitude,longitude,air_pressure(mBar),qcFlag 
TABS,ioos:station:wmo:42043:1,2003-01-01T03:39:00Z,28.9818,-94.9186,1016.33,11111222 
TABS,ioos:station:wmo:42043:1,2003-01-01T04:09:00Z,28.9818,-94.9186,1016.33,11111222 
TABS,ioos:station:wmo:42043:1,2003-01-01T04:39:00Z,28.9818,-94.9186,1016.58,11111222 
TABS,ioos:station:wmo:42043:1,2003-01-01T06:39:00Z,28.9818,-94.9186,1016.58,11111222 
TABS,ioos:station:wmo:42043:1,2003-01-01T07:09:00Z,28.9818,-94.9186,1016.9,11111222 
TABS,ioos:station:wmo:42043:1,2003-01-01T07:39:00Z,28.9818,-94.9186,1016.77,11111222 
TABS,ioos:station:wmo:42043:1,2003-01-01T09:39:00Z,28.9818,-94.9186,1015.88,11111222 
TABS,ioos:station:wmo:42043:1,2003-01-01T10:09:00Z,28.9818,-94.9186,1015.82,11111222 
TABS,ioos:station:wmo:42043:1,2003-01-01T10:39:00Z,28.9818,-94.9186,1015.69,11111222 
TABS,ioos:station:wmo:42043:1,2003-01-01T12:39:00Z,28.9818,-94.9186,1015.95,11111222 
TABS,ioos:station:wmo:42043:1,2003-01-01T13:09:00Z,28.9818,-94.9186,1016.2,11111222 
TABS,ioos:station:wmo:42043:1,2003-01-01T13:39:00Z,28.9818,-94.9186,1016.58,11111222 
TABS,ioos:station:wmo:42043:1,2003-01-01T18:39:00Z,28.9818,-94.9186,1015.0,11111222 
TABS,ioos:station:wmo:42043:1,2003-01-01T19:09:00Z,28.9818,-94.9186,1014.93,11111222 
TABS,ioos:station:wmo:42043:1,2003-01-01T19:39:00Z,28.9818,-94.9186,1014.61,11111222 
TABS,ioos:station:wmo:42043:1,2003-01-01T21:39:00Z,28.9818,-94.9186,1014.11,11111222 
TABS,ioos:station:wmo:42043:1,2003-01-01T22:09:00Z,28.9818,-94.9186,1014.11,11111222 
TABS,ioos:station:wmo:42043:1,2003-01-01T22:39:00Z,28.9818,-94.9186,1014.93,11111222 
TABS,ioos:station:wmo:42043:1,2003-01-02T00:39:00Z,28.9818,-94.9186,1015.0,11111222 
TABS,ioos:station:wmo:42043:1,2003-01-02T01:09:00Z,28.9818,-94.9186,1015.44,11111222 
TABS,ioos:station:wmo:42043:1,2003-01-02T01:39:00Z,28.9818,-94.9186,1015.44,11111222 
TABS,ioos:station:wmo:42043:1,2003-01-02T03:39:00Z,28.9818,-94.9186,1016.39,11111222 
TABS,ioos:station:wmo:42043:1,2003-01-02T04:09:00Z,28.9818,-94.9186,1016.46,11111222 
TABS,ioos:station:wmo:42043:1,2003-01-02T04:39:00Z,28.9818,-94.9186,1016.46,11111222 
TABS,ioos:station:wmo:42043:1,2003-01-02T06:39:00Z,28.9818,-94.9186,1017.09,11111222 
TABS,ioos:station:wmo:42043:1,2003-01-02T07:09:00Z,28.9818,-94.9186,1018.42,11111222 
TABS,ioos:station:wmo:42043:1,2003-01-02T07:39:00Z,28.9818,-94.9186,1018.87,11111222 
TABS,ioos:station:wmo:42043:1,2003-01-02T09:39:00Z,28.9818,-94.9186,1020.77,11111222 
TABS,ioos:station:wmo:42043:1,2003-01-02T10:09:00Z,28.9818,-94.9186,1021.09,11111222 
TABS,ioos:station:wmo:42043:1,2003-01-02T10:39:00Z,28.9818,-94.9186,1021.66,11111222 
TABS,ioos:station:wmo:42043:1,2003-01-02T12:39:00Z,28.9818,-94.9186,1023.44,11111222 
TABS,ioos:station:wmo:42043:1,2003-01-02T13:09:00Z,28.9818,-94.9186,1023.95,11111222 
TABS,ioos:station:wmo:42043:1,2003-01-02T13:39:00Z,28.9818,-94.9186,1024.71,11111222 
TABS,ioos:station:wmo:42043:1,2003-01-02T15:39:00Z,28.9818,-94.9186,1026.48,11111222 
TABS,ioos:station:wmo:42043:1,2003-01-02T16:09:00Z,28.9818,-94.9186,1026.74,11111222 
TABS,ioos:station:wmo:42043:1,2003-01-02T16:39:00Z,28.9818,-94.9186,1026.93,11111222 
TABS,ioos:station:wmo:42043:1,2003-01-02T21:39:00Z,28.9818,-94.9186,1025.53,11111222 
TABS,ioos:station:wmo:42043:1,2003-01-02T22:09:00Z,28.9818,-94.9186,1025.47,11111222 
TABS,ioos:station:wmo:42043:1,2003-01-02T22:39:00Z,28.9818,-94.9186,1025.66,11111222 
TABS,ioos:station:wmo:42043:1,2003-01-03T00:39:00Z,28.9818,-94.9186,1027.25,11111222 
TABS,ioos:station:wmo:42043:1,2003-01-03T01:09:00Z,28.9818,-94.9186,1027.69,11111222 
TABS,ioos:station:wmo:42043:1,2003-01-03T01:39:00Z,28.9818,-94.9186,1028.13,11111222 
TABS,ioos:station:wmo:42043:1,2003-01-03T03:39:00Z,28.9818,-94.9186,1028.52,11111222 
TABS,ioos:station:wmo:42043:1,2003-01-03T04:09:00Z,28.9818,-94.9186,1028.58,11111222 
TABS,ioos:station:wmo:42043:1,2003-01-03T04:39:00Z,28.9818,-94.9186,1028.83,11111222 
TABS,ioos:station:wmo:42043:1,2003-01-03T06:39:00Z,28.9818,-94.9186,1028.77,11111222 
TABS,ioos:station:wmo:42043:1,2003-01-03T07:09:00Z,28.9818,-94.9186,1028.58,11111222 
TABS,ioos:station:wmo:42043:1,2003-01-03T07:39:00Z,28.9818,-94.9186,1028.71,11111222 
TABS,ioos:station:wmo:42043:1,2003-01-03T09:39:00Z,28.9818,-94.9186,1029.02,11111222 
TABS,ioos:station:wmo:42043:1,2003-01-03T10:09:00Z,28.9818,-94.9186,1028.96,11111222 
TABS,ioos:station:wmo:42043:1,2003-01-03T10:39:00Z,28.9818,-94.9186,1029.21,11111222 
TABS,ioos:station:wmo:42043:1,2003-01-03T12:39:00Z,28.9818,-94.9186,1029.98,11111222 
TABS,ioos:station:wmo:42043:1,2003-01-03T13:09:00Z,28.9818,-94.9186,1030.29,11111222 
TABS,ioos:station:wmo:42043:1,2003-01-03T13:39:00Z,28.9818,-94.9186,1030.67,11111222 
TABS,ioos:station:wmo:42043:1,2003-01-03T20:09:00Z,28.9818,-94.9186,1028.52,11111222 
TABS,ioos:station:wmo:42043:1,2003-01-03T20:39:00Z,28.9818,-94.9186,1028.39,11111222 
TABS,ioos:station:wmo:42043:1,2003-01-03T21:09:00Z,28.9818,-94.9186,1028.33,11111222 
TABS,ioos:station:wmo:42043:1,2003-01-03T21:39:00Z,28.9818,-94.9186,1028.26,11111222 
TABS,ioos:station:wmo:42043:1,2003-01-03T22:09:00Z,28.9818,-94.9186,1028.26,11111222 
TABS,ioos:station:wmo:42043:1,2003-01-03T22:39:00Z,28.9818,-94.9186,1028.13,11111222 
TABS,ioos:station:wmo:42043:1,2003-01-03T23:09:00Z,28.9818,-94.9186,1027.88,11111222 
TABS,ioos:station:wmo:42043:1,2003-01-03T23:39:00Z,28.9818,-94.9186,1027.56,11111222 
TABS,ioos:station:wmo:42043:1,2003-01-04T00:09:00Z,28.9818,-94.9186,1027.63,11111222 
TABS,ioos:station:wmo:42043:1,2003-01-04T00:39:00Z,28.9818,-94.9186,1027.69,11111222 
TABS,ioos:station:wmo:42043:1,2003-01-04T01:09:00Z,28.9818,-94.9186,1027.69,11111222 
TABS,ioos:station:wmo:42043:1,2003-01-04T01:39:00Z,28.9818,-94.9186,1027.94,11111222 
TABS,ioos:station:wmo:42043:1,2003-01-04T02:09:00Z,28.9818,-94.9186,1027.94,11111222 
TABS,ioos:station:wmo:42043:1,2003-01-04T02:39:00Z,28.9818,-94.9186,1027.82,11111222 
TABS,ioos:station:wmo:42043:1,2003-01-04T03:09:00Z,28.9818,-94.9186,1027.82,11111222 
TABS,ioos:station:wmo:42043:1,2003-01-04T03:39:00Z,28.9818,-94.9186,1027.88,11111222 
TABS,ioos:station:wmo:42043:1,2003-01-04T04:09:00Z,28.9818,-94.9186,1027.88,11111222 
TABS,ioos:station:wmo:42043:1,2003-01-04T04:39:00Z,28.9818,-94.9186,1027.94,11111222 
TABS,ioos:station:wmo:42043:1,2003-01-04T05:09:00Z,28.9818,-94.9186,1027.82,11111222 
TABS,ioos:station:wmo:42043:1,2003-01-04T05:39:00Z,28.9818,-94.9186,1027.44,11111222 
TABS,ioos:station:wmo:42043:1,2003-01-04T06:09:00Z,28.9818,-94.9186,1027.25,11111222 
TABS,ioos:station:wmo:42043:1,2003-01-04T06:39:00Z,28.9818,-94.9186,1027.18,11111222 
TABS,ioos:station:wmo:42043:1,2003-01-04T07:09:00Z,28.9818,-94.9186,1027.25,11111222 
TABS,ioos:station:wmo:42043:1,2003-01-04T07:39:00Z,28.9818,-94.9186,1027.25,11111222 
TABS,ioos:station:wmo:42043:1,2003-01-04T08:09:00Z,28.9818,-94.9186,1027.18,11111222 
TABS,ioos:station:wmo:42043:1,2003-01-04T08:39:00Z,28.9818,-94.9186,1026.93,11111222 
TABS,ioos:station:wmo:42043:1,2003-01-04T09:09:00Z,28.9818,-94.9186,1026.93,11111222 
TABS,ioos:station:wmo:42043:1,2003-01-04T09:39:00Z,28.9818,-94.9186,1026.8,11111222 
TABS,ioos:station:wmo:42043:1,2003-01-04T10:09:00Z,28.9818,-94.9186,1026.61,11111222 
TABS,ioos:station:wmo:42043:1,2003-01-04T10:39:00Z,28.9818,-94.9186,1026.48,11111222 
TABS,ioos:station:wmo:42043:1,2003-01-04T11:09:00Z,28.9818,-94.9186,1026.48,11111222 
TABS,ioos:station:wmo:42043:1,2003-01-04T11:39:00Z,28.9818,-94.9186,1026.55,11111222 
TABS,ioos:station:wmo:42043:1,2003-01-04T12:09:00Z,28.9818,-94.9186,1026.74,11111222 
TABS,ioos:station:wmo:42043:1,2003-01-04T12:39:00Z,28.9818,-94.9186,1026.87,11111222 
TABS,ioos:station:wmo:42043:1,2003-01-04T13:09:00Z,28.9818,-94.9186,1027.18,11111222 
TABS,ioos:station:wmo:42043:1,2003-01-04T13:39:00Z,28.9818,-94.9186,1027.5,11111222 
TABS,ioos:station:wmo:42043:1,2003-01-04T14:09:00Z,28.9818,-94.9186,1027.75,11111222 
TABS,ioos:station:wmo:42043:1,2003-01-04T14:39:00Z,28.9818,-94.9186,1028.13,11111222 
TABS,ioos:station:wmo:42043:1,2003-01-04T15:09:00Z,28.9818,-94.9186,1028.33,11111222 
TABS,ioos:station:wmo:42043:1,2003-01-04T15:39:00Z,28.9818,-94.9186,1028.71,11111222 
TABS,ioos:station:wmo:42043:1,2003-01-04T16:09:00Z,28.9818,-94.9186,1028.58,11111222 
TABS,ioos:station:wmo:42043:1,2003-01-04T16:39:00Z,28.9818,-94.9186,1028.26,11111222 
TABS,ioos:station:wmo:42043:1,2003-01-04T17:09:00Z,28.9818,-94.9186,1027.82,11111222 
TABS,ioos:station:wmo:42043:1,2003-01-04T17:39:00Z,28.9818,-94.9186,1027.44,11111222 
TABS,ioos:station:wmo:42043:1,2003-01-04T18:09:00Z,28.9818,-94.9186,1026.99,11111222 
TABS,ioos:station:wmo:42043:1,2003-01-04T18:39:00Z,28.9818,-94.9186,1026.55,11111222 
TABS,ioos:station:wmo:42043:1,2003-01-04T19:09:00Z,28.9818,-94.9186,1025.85,11111222 
TABS,ioos:station:wmo:42043:1,2003-01-04T19:39:00Z,28.9818,-94.9186,1025.6,11111222 
TABS,ioos:station:wmo:42043:1,2003-01-04T20:09:00Z,28.9818,-94.9186,1025.41,11111222 
TABS,ioos:station:wmo:42043:1,2003-01-04T20:39:00Z,28.9818,-94.9186,1025.34,11111222 
TABS,ioos:station:wmo:42043:1,2003-01-04T21:09:00Z,28.9818,-94.9186,1025.28,11111222 
TABS,ioos:station:wmo:42043:1,2003-01-04T21:39:00Z,28.9818,-94.9186,1025.15,11111222 
TABS,ioos:station:wmo:42043:1,2003-01-04T22:09:00Z,28.9818,-94.9186,1025.02,11111222 
TABS,ioos:station:wmo:42043:1,2003-01-04T22:39:00Z,28.9818,-94.9186,1025.15,11111222 
TABS,ioos:station:wmo:42043:1,2003-01-04T23:09:00Z,28.9818,-94.9186,1025.09,11111222 
TABS,ioos:station:wmo:42043:1,2003-01-04T23:39:00Z,28.9818,-94.9186,1024.77,11111222 
TABS,ioos:station:wmo:42043:1,2003-01-05T00:09:00Z,28.9818,-94.9186,1024.83,11111222 
TABS,ioos:station:wmo:42043:1,2003-01-05T00:39:00Z,28.9818,-94.9186,1024.58,11111222 
TABS,ioos:station:wmo:42043:1,2003-01-05T01:09:00Z,28.9818,-94.9186,1024.58,11111222 
TABS,ioos:station:wmo:42043:1,2003-01-05T01:39:00Z,28.9818,-94.9186,1024.52,11111222 
TABS,ioos:station:wmo:42043:1,2003-01-05T02:09:00Z,28.9818,-94.9186,1024.39,11111222 
TABS,ioos:station:wmo:42043:1,2003-01-05T02:39:00Z,28.9818,-94.9186,1024.52,11111222 
TABS,ioos:station:wmo:42043:1,2003-01-05T03:09:00Z,28.9818,-94.9186,1024.52,11111222 
TABS,ioos:station:wmo:42043:1,2003-01-05T03:39:00Z,28.9818,-94.9186,1024.45,11111222 
TABS,ioos:station:wmo:42043:1,2003-01-05T04:09:00Z,28.9818,-94.9186,1024.58,11111222 
TABS,ioos:station:wmo:42043:1,2003-01-05T04:39:00Z,28.9818,-94.9186,1024.9,11111222 
TABS,ioos:station:wmo:42043:1,2003-01-05T05:09:00Z,28.9818,-94.9186,1025.02,11111222 
TABS,ioos:station:wmo:42043:1,2003-01-05T05:39:00Z,28.9818,-94.9186,1024.83,11111222 
TABS,ioos:station:wmo:42043:1,2003-01-05T06:09:00Z,28.9818,-94.9186,1024.83,11111222 
TABS,ioos:station:wmo:42043:1,2003-01-05T06:39:00Z,28.9818,-94.9186,1024.64,11111222 
TABS,ioos:station:wmo:42043:1,2003-01-05T07:09:00Z,28.9818,-94.9186,1024.52,11111222 
TABS,ioos:station:wmo:42043:1,2003-01-05T07:39:00Z,28.9818,-94.9186,1024.2,11111222 
TABS,ioos:station:wmo:42043:1,2003-01-05T08:09:00Z,28.9818,-94.9186,1024.33,11111222 
TABS,ioos:station:wmo:42043:1,2003-01-05T08:39:00Z,28.9818,-94.9186,1024.14,11111222 
TABS,ioos:station:wmo:42043:1,2003-01-05T09:09:00Z,28.9818,-94.9186,1023.95,11111222 
TABS,ioos:station:wmo:42043:1,2003-01-05T09:39:00Z,28.9818,-94.9186,1023.88,11111222 
TABS,ioos:station:wmo:42043:1,2003-01-05T10:09:00Z,28.9818,-94.9186,1023.82,11111222 
TABS,ioos:station:wmo:42043:1,2003-01-05T10:39:00Z,28.9818,-94.9186,1023.75,11111222 
TABS,ioos:station:wmo:42043:1,2003-01-05T11:09:00Z,28.9818,-94.9186,1023.75,11111222 
TABS,ioos:station:wmo:42043:1,2003-01-05T11:39:00Z,28.9818,-94.9186,1023.63,11111222 
TABS,ioos:station:wmo:42043:1,2003-01-05T12:09:00Z,28.9818,-94.9186,1023.63,11111222 
TABS,ioos:station:wmo:42043:1,2003-01-05T12:39:00Z,28.9818,-94.9186,1023.88,11111222 
TABS,ioos:station:wmo:42043:1,2003-01-05T13:09:00Z,28.9818,-94.9186,1024.2,11111222 
TABS,ioos:station:wmo:42043:1,2003-01-05T13:39:00Z,28.9818,-94.9186,1024.45,11111222 
TABS,ioos:station:wmo:42043:1,2003-01-05T14:09:00Z,28.9818,-94.9186,1024.96,11111222 
TABS,ioos:station:wmo:42043:1,2003-01-05T14:39:00Z,28.9818,-94.9186,1025.21,11111222 
TABS,ioos:station:wmo:42043:1,2003-01-05T15:09:00Z,28.9818,-94.9186,1025.47,11111222 
TABS,ioos:station:wmo:42043:1,2003-01-05T15:39:00Z,28.9818,-94.9186,1025.85,11111222 
TABS,ioos:station:wmo:42043:1,2003-01-05T16:09:00Z,28.9818,-94.9186,1025.91,11111222 
TABS,ioos:station:wmo:42043:1,2003-01-05T16:39:00Z,28.9818,-94.9186,1025.79,11111222 
TABS,ioos:station:wmo:42043:1,2003-01-05T17:09:00Z,28.9818,-94.9186,1025.41,11111222 
TABS,ioos:station:wmo:42043:1,2003-01-05T17:39:00Z,28.9818,-94.9186,1024.96,11111222 
TABS,ioos:station:wmo:42043:1,2003-01-05T18:09:00Z,28.9818,-94.9186,1024.45,11111222 
TABS,ioos:station:wmo:42043:1,2003-01-05T18:39:00Z,28.9818,-94.9186,1024.01,11111222 
TABS,ioos:station:wmo:42043:1,2003-01-05T19:09:00Z,28.9818,-94.9186,1023.69,11111222 
TABS,ioos:station:wmo:42043:1,2003-01-05T19:39:00Z,28.9818,-94.9186,1023.25,11111222 
TABS,ioos:station:wmo:42043:1,2003-01-05T20:09:00Z,28.9818,-94.9186,1022.93,11111222 
TABS,ioos:station:wmo:42043:1,2003-01-05T20:39:00Z,28.9818,-94.9186,1022.93,11111222 
TABS,ioos:station:wmo:42043:1,2003-01-05T21:09:00Z,28.9818,-94.9186,1022.68,11111222 
TABS,ioos:station:wmo:42043:1,2003-01-05T21:39:00Z,28.9818,-94.9186,1022.55,11111222 
TABS,ioos:station:wmo:42043:1,2003-01-05T22:09:00Z,28.9818,-94.9186,1022.55,11111222 
TABS,ioos:station:wmo:42043:1,2003-01-05T22:39:00Z,28.9818,-94.9186,1022.49,11111222 
TABS,ioos:station:wmo:42043:1,2003-01-05T23:09:00Z,28.9818,-94.9186,1022.61,11111222 
TABS,ioos:station:wmo:42043:1,2003-01-05T23:39:00Z,28.9818,-94.9186,1022.61,11111222 
TABS,ioos:station:wmo:42043:1,2003-01-06T00:09:00Z,28.9818,-94.9186,1022.61,11111222 
TABS,ioos:station:wmo:42043:1,2003-01-06T00:39:00Z,28.9818,-94.9186,1023.06,11111222 
TABS,ioos:station:wmo:42043:1,2003-01-06T01:09:00Z,28.9818,-94.9186,1023.18,11111222 
TABS,ioos:station:wmo:42043:1,2003-01-06T01:39:00Z,28.9818,-94.9186,1023.5,11111222 
TABS,ioos:station:wmo:42043:1,2003-01-06T02:09:00Z,28.9818,-94.9186,1023.56,11111222 
TABS,ioos:station:wmo:42043:1,2003-01-06T02:39:00Z,28.9818,-94.9186,1024.07,11111222 
TABS,ioos:station:wmo:42043:1,2003-01-06T03:09:00Z,28.9818,-94.9186,1024.26,11111222 
TABS,ioos:station:wmo:42043:1,2003-01-06T03:39:00Z,28.9818,-94.9186,1024.39,11111222 
TABS,ioos:station:wmo:42043:1,2003-01-06T04:09:00Z,28.9818,-94.9186,1024.52,11111222 
TABS,ioos:station:wmo:42043:1,2003-01-06T04:39:00Z,28.9818,-94.9186,1024.52,11111222 
TABS,ioos:station:wmo:42043:1,2003-01-06T05:09:00Z,28.9818,-94.9186,1024.52,11111222 
TABS,ioos:station:wmo:42043:1,2003-01-06T05:39:00Z,28.9818,-94.9186,1024.58,11111222 
TABS,ioos:station:wmo:42043:1,2003-01-06T06:09:00Z,28.9818,-94.9186,1024.77,11111222 
TABS,ioos:station:wmo:42043:1,2003-01-06T06:39:00Z,28.9818,-94.9186,1024.83,11111222 
TABS,ioos:station:wmo:42043:1,2003-01-06T07:09:00Z,28.9818,-94.9186,1025.02,11111222 
TABS,ioos:station:wmo:42043:1,2003-01-06T07:39:00Z,28.9818,-94.9186,1025.15,11111222 
TABS,ioos:station:wmo:42043:1,2003-01-06T08:09:00Z,28.9818,-94.9186,1025.28,11111222 
TABS,ioos:station:wmo:42043:1,2003-01-06T08:39:00Z,28.9818,-94.9186,1025.28,11111222 
TABS,ioos:station:wmo:42043:1,2003-01-06T09:09:00Z,28.9818,-94.9186,1025.34,11111222 
TABS,ioos:station:wmo:42043:1,2003-01-06T09:39:00Z,28.9818,-94.9186,1025.28,11111222 
TABS,ioos:station:wmo:42043:1,2003-01-06T10:09:00Z,28.9818,-94.9186,1025.34,11111222 
TABS,ioos:station:wmo:42043:1,2003-01-06T10:39:00Z,28.9818,-94.9186,1025.47,11111222 
TABS,ioos:station:wmo:42043:1,2003-01-06T11:09:00Z,28.9818,-94.9186,1025.98,11111222 
TABS,ioos:station:wmo:42043:1,2003-01-06T11:39:00Z,28.9818,-94.9186,1026.23,11111222 
TABS,ioos:station:wmo:42043:1,2003-01-06T12:09:00Z,28.9818,-94.9186,1026.42,11111222 
TABS,ioos:station:wmo:42043:1,2003-01-06T12:39:00Z,28.9818,-94.9186,1026.87,11111222 
TABS,ioos:station:wmo:42043:1,2003-01-06T13:09:00Z,28.9818,-94.9186,1027.37,11111222 
TABS,ioos:station:wmo:42043:1,2003-01-06T13:39:00Z,28.9818,-94.9186,1028.01,11111222 
TABS,ioos:station:wmo:42043:1,2003-01-06T14:09:00Z,28.9818,-94.9186,1028.64,11111222 
TABS,ioos:station:wmo:42043:1,2003-01-06T14:39:00Z,28.9818,-94.9186,1029.28,11111222 
TABS,ioos:station:wmo:42043:1,2003-01-06T15:09:00Z,28.9818,-94.9186,1029.91,11111222 
TABS,ioos:station:wmo:42043:1,2003-01-06T15:39:00Z,28.9818,-94.9186,1030.74,11111222 
TABS,ioos:station:wmo:42043:1,2003-01-06T16:09:00Z,28.9818,-94.9186,1031.05,11111222 
TABS,ioos:station:wmo:42043:1,2003-01-06T16:39:00Z,28.9818,-94.9186,1030.93,11111222 
TABS,ioos:station:wmo:42043:1,2003-01-06T17:09:00Z,28.9818,-94.9186,1030.86,11111222 
TABS,ioos:station:wmo:42043:1,2003-01-06T17:39:00Z,28.9818,-94.9186,1030.74,11111222 
TABS,ioos:station:wmo:42043:1,2003-01-06T18:09:00Z,28.9818,-94.9186,1030.42,11111222 
TABS,ioos:station:wmo:42043:1,2003-01-06T18:39:00Z,28.9818,-94.9186,1029.91,11111222 
TABS,ioos:station:wmo:42043:1,2003-01-06T19:09:00Z,28.9818,-94.9186,1029.79,11111222 
TABS,ioos:station:wmo:42043:1,2003-01-06T19:39:00Z,28.9818,-94.9186,1029.79,11111222 
TABS,ioos:station:wmo:42043:1,2003-01-06T20:09:00Z,28.9818,-94.9186,1029.91,11111222 
TABS,ioos:station:wmo:42043:1,2003-01-06T20:39:00Z,28.9818,-94.9186,1030.36,11111222 
TABS,ioos:station:wmo:42043:1,2003-01-06T21:09:00Z,28.9818,-94.9186,1030.67,11111222 
TABS,ioos:station:wmo:42043:1,2003-01-06T21:39:00Z,28.9818,-94.9186,1030.93,11111222 
TABS,ioos:station:wmo:42043:1,2003-01-06T22:09:00Z,28.9818,-94.9186,1031.12,11111222 
TABS,ioos:station:wmo:42043:1,2003-01-06T22:39:00Z,28.9818,-94.9186,1031.69,11111222 
TABS,ioos:station:wmo:42043:1,2003-01-06T23:09:00Z,28.9818,-94.9186,1031.75,11111222 
TABS,ioos:station:wmo:42043:1,2003-01-06T23:39:00Z,28.9818,-94.9186,1032.07,11111222 
TABS,ioos:station:wmo:42043:1,2003-01-07T00:09:00Z,28.9818,-94.9186,1032.26,11111222 
TABS,ioos:station:wmo:42043:1,2003-01-07T00:39:00Z,28.9818,-94.9186,1032.51,11111222 
TABS,ioos:station:wmo:42043:1,2003-01-07T01:09:00Z,28.9818,-94.9186,1032.9,11111222 
TABS,ioos:station:wmo:42043:1,2003-01-07T01:39:00Z,28.9818,-94.9186,1033.15,11111222 
TABS,ioos:station:wmo:42043:1,2003-01-07T02:09:00Z,28.9818,-94.9186,1033.53,11111222 
TABS,ioos:station:wmo:42043:1,2003-01-07T02:39:00Z,28.9818,-94.9186,1033.85,11111222 
TABS,ioos:station:wmo:42043:1,2003-01-07T03:09:00Z,28.9818,-94.9186,1034.04,11111222 
TABS,ioos:station:wmo:42043:1,2003-01-07T03:39:00Z,28.9818,-94.9186,1034.17,11111222 
TABS,ioos:station:wmo:42043:1,2003-01-07T04:09:00Z,28.9818,-94.9186,1034.61,11111222 
TABS,ioos:station:wmo:42043:1,2003-01-07T04:39:00Z,28.9818,-94.9186,1034.67,11111222 
TABS,ioos:station:wmo:42043:1,2003-01-07T05:09:00Z,28.9818,-94.9186,1034.48,11111222 
TABS,ioos:station:wmo:42043:1,2003-01-07T05:39:00Z,28.9818,-94.9186,1034.48,11111222 
TABS,ioos:station:wmo:42043:1,2003-01-07T06:09:00Z,28.9818,-94.9186,1034.61,11111222 
TABS,ioos:station:wmo:42043:1,2003-01-07T06:39:00Z,28.9818,-94.9186,1034.36,11111222 
TABS,ioos:station:wmo:42043:1,2003-01-07T07:09:00Z,28.9818,-94.9186,1034.29,11111222 
TABS,ioos:station:wmo:42043:1,2003-01-07T07:39:00Z,28.9818,-94.9186,1034.36,11111222 
TABS,ioos:station:wmo:42043:1,2003-01-07T08:09:00Z,28.9818,-94.9186,1034.55,11111222 
TABS,ioos:station:wmo:42043:1,2003-01-07T08:39:00Z,28.9818,-94.9186,1034.61,11111222 
TABS,ioos:station:wmo:42043:1,2003-01-07T09:09:00Z,28.9818,-94.9186,1034.67,11111222 
TABS,ioos:station:wmo:42043:1,2003-01-07T09:39:00Z,28.9818,-94.9186,1034.93,11111222 
TABS,ioos:station:wmo:42043:1,2003-01-07T10:09:00Z,28.9818,-94.9186,1035.12,11111222 
TABS,ioos:station:wmo:42043:1,2003-01-07T10:39:00Z,28.9818,-94.9186,1035.18,11111222 
TABS,ioos:station:wmo:42043:1,2003-01-07T11:09:00Z,28.9818,-94.9186,1035.31,11111222 
TABS,ioos:station:wmo:42043:1,2003-01-07T11:39:00Z,28.9818,-94.9186,1035.62,11111222 
TABS,ioos:station:wmo:42043:1,2003-01-07T12:09:00Z,28.9818,-94.9186,1036.07,11111222 
TABS,ioos:station:wmo:42043:1,2003-01-07T12:39:00Z,28.9818,-94.9186,1035.94,11111222 
TABS,ioos:station:wmo:42043:1,2003-01-07T13:09:00Z,28.9818,-94.9186,1036.45,11111222 
TABS,ioos:station:wmo:42043:1,2003-01-07T13:39:00Z,28.9818,-94.9186,1036.7,11111222 
TABS,ioos:station:wmo:42043:1,2003-01-07T14:09:00Z,28.9818,-94.9186,1036.96,11111222 
TABS,ioos:station:wmo:42043:1,2003-01-07T14:39:00Z,28.9818,-94.9186,1037.4,11111222 
TABS,ioos:station:wmo:42043:1,2003-01-07T15:09:00Z,28.9818,-94.9186,1037.91,11111222 
TABS,ioos:station:wmo:42043:1,2003-01-07T15:39:00Z,28.9818,-94.9186,1037.97,11111222 
TABS,ioos:station:wmo:42043:1,2003-01-07T16:09:00Z,28.9818,-94.9186,1038.23,11111222 
TABS,ioos:station:wmo:42043:1,2003-01-07T16:39:00Z,28.9818,-94.9186,1038.1,11111222 
TABS,ioos:station:wmo:42043:1,2003-01-07T17:09:00Z,28.9818,-94.9186,1037.72,11111222 
TABS,ioos:station:wmo:42043:1,2003-01-07T17:39:00Z,28.9818,-94.9186,1037.21,11111222 
TABS,ioos:station:wmo:42043:1,2003-01-07T18:09:00Z,28.9818,-94.9186,1036.26,11111222 
TABS,ioos:station:wmo:42043:1,2003-01-07T18:39:00Z,28.9818,-94.9186,1035.62,11111222 
TABS,ioos:station:wmo:42043:1,2003-01-07T19:09:00Z,28.9818,-94.9186,1035.18,11111222 
TABS,ioos:station:wmo:42043:1,2003-01-07T19:39:00Z,28.9818,-94.9186,1034.74,11111222 
TABS,ioos:station:wmo:42043:1,2003-01-07T20:09:00Z,28.9818,-94.9186,1034.61,11111222 
TABS,ioos:station:wmo:42043:1,2003-01-07T20:39:00Z,28.9818,-94.9186,1034.04,11111222 
TABS,ioos:station:wmo:42043:1,2003-01-07T21:09:00Z,28.9818,-94.9186,1033.91,11111222 
TABS,ioos:station:wmo:42043:1,2003-01-07T21:39:00Z,28.9818,-94.9186,1034.04,11111222 
TABS,ioos:station:wmo:42043:1,2003-01-07T22:09:00Z,28.9818,-94.9186,1033.72,11111222 
TABS,ioos:station:wmo:42043:1,2003-01-07T22:39:00Z,28.9818,-94.9186,1033.4,11111222 
TABS,ioos:station:wmo:42043:1,2003-01-07T23:09:00Z,28.9818,-94.9186,1033.34,11111222 
TABS,ioos:station:wmo:42043:1,2003-01-07T23:39:00Z,28.9818,-94.9186,1033.47,11111222 
TABS,ioos:station:wmo:42043:1,2003-01-08T00:09:00Z,28.9818,-94.9186,1033.66,11111222 
TABS,ioos:station:wmo:42043:1,2003-01-08T00:39:00Z,28.9818,-94.9186,1033.66,11111222 
TABS,ioos:station:wmo:42043:1,2003-01-08T01:09:00Z,28.9818,-94.9186,1033.72,11111222 
TABS,ioos:station:wmo:42043:1,2003-01-08T01:39:00Z,28.9818,-94.9186,1033.91,11111222 
TABS,ioos:station:wmo:42043:1,2003-01-08T02:09:00Z,28.9818,-94.9186,1033.85,11111222 
TABS,ioos:station:wmo:42043:1,2003-01-08T02:39:00Z,28.9818,-94.9186,1034.04,11111222 
TABS,ioos:station:wmo:42043:1,2003-01-08T03:09:00Z,28.9818,-94.9186,1034.04,11111222 
TABS,ioos:station:wmo:42043:1,2003-01-08T03:39:00Z,28.9818,-94.9186,1034.1,11111222 
TABS,ioos:station:wmo:42043:1,2003-01-08T04:09:00Z,28.9818,-94.9186,1033.91,11111222 
TABS,ioos:station:wmo:42043:1,2003-01-08T04:39:00Z,28.9818,-94.9186,1033.4,11111222 
TABS,ioos:station:wmo:42043:1,2003-01-08T05:09:00Z,28.9818,-94.9186,1033.15,11111222 
TABS,ioos:station:wmo:42043:1,2003-01-08T05:39:00Z,28.9818,-94.9186,1032.64,11111222 
TABS,ioos:station:wmo:42043:1,2003-01-08T06:09:00Z,28.9818,-94.9186,1032.26,11111222 
TABS,ioos:station:wmo:42043:1,2003-01-08T06:39:00Z,28.9818,-94.9186,1032.07,11111222 
TABS,ioos:station:wmo:42043:1,2003-01-08T07:09:00Z,28.9818,-94.9186,1031.88,11111222 
TABS,ioos:station:wmo:42043:1,2003-01-08T07:39:00Z,28.9818,-94.9186,1031.82,11111222 
TABS,ioos:station:wmo:42043:1,2003-01-08T08:09:00Z,28.9818,-94.9186,1031.5,11111222 
TABS,ioos:station:wmo:42043:1,2003-01-08T08:39:00Z,28.9818,-94.9186,1031.37,11111222 
TABS,ioos:station:wmo:42043:1,2003-01-08T09:09:00Z,28.9818,-94.9186,1031.12,11111222 
TABS,ioos:station:wmo:42043:1,2003-01-08T09:39:00Z,28.9818,-94.9186,1030.99,11111222 
TABS,ioos:station:wmo:42043:1,2003-01-08T10:09:00Z,28.9818,-94.9186,1030.8,11111222 
TABS,ioos:station:wmo:42043:1,2003-01-08T10:39:00Z,28.9818,-94.9186,1030.48,11111222 
TABS,ioos:station:wmo:42043:1,2003-01-08T11:09:00Z,28.9818,-94.9186,1030.29,11111222 
TABS,ioos:station:wmo:42043:1,2003-01-08T11:39:00Z,28.9818,-94.9186,1030.42,11111222 